EST,Max TemperatureF,Mean TemperatureF,Min TemperatureF,Max Dew PointF,MeanDew PointF,Min DewpointF,Max Humidity, Mean Humidity, Min Humidity, Max Sea Level PressureIn, Mean Sea Level PressureIn, Min Sea Level PressureIn, Max VisibilityMiles, Mean VisibilityMiles, Min VisibilityMiles, Max Wind SpeedMPH, Mean Wind SpeedMPH, Max Gust SpeedMPH,PrecipitationIn, CloudCover, Events, WindDirDegrees
2013-2-1,52,40,27,26,16,-3,66,37,12,30.38,30.19,30.03,10,10,10,16,7,28,0.00,0,,257
2013-2-2,52,38,25,39,19,6,86,50,23,30.42,30.27,30.07,10,10,10,12,4,18,0.00,0,,119
2013-2-3,56,46,35,39,31,23,92,59,29,30.06,29.96,29.88,10,10,10,10,3,23,0.00,1,,263
2013-2-4,49,38,27,34,27,22,93,61,35,30.17,30.09,30.01,10,10,10,6,1,,0.00,0,,115
2013-2-5,66,51,36,41,35,30,91,57,26,30.06,29.98,29.91,10,10,10,13,3,20,0.00,0,,219
2013-2-6,67,53,39,47,39,32,96,67,28,30.24,30.12,30.00,10,10,7,7,1,,0.00,0,,326
2013-2-7,54,46,40,51,45,40,97,91,74,30.24,30.12,29.79,10,7,3,16,7,25,0.50,3,Rain,36
2013-2-8,59,48,36,47,41,32,98,76,52,30.06,29.84,29.66,10,10,3,14,7,24,0.29,4,Rain,312
2013-2-9,56,44,32,33,26,17,93,53,24,30.36,30.23,30.06,10,10,10,9,2,,0.00,0,,320
2013-2-10,62,46,29,48,36,28,96,74,39,30.47,30.36,30.25,10,10,7,9,2,,0.01,2,Rain,86
2013-2-11,58,54,49,54,52,48,97,93,85,30.29,30.10,30.00,10,9,7,16,8,23,0.16,4,Rain,199
2013-2-12,60,51,42,50,44,32,98,78,34,30.11,30.01,29.95,10,10,4,9,4,,0.14,1,Rain,240
2013-2-13,49,39,29,48,38,29,100,92,73,29.96,29.77,29.66,10,8,2,12,4,21,0.19,5,Rain,231
2013-2-14,52,44,37,45,36,31,97,74,48,30.08,30.00,29.84,10,10,10,8,2,,0.01,0,,320
2013-2-15,60,46,31,38,34,27,100,72,31,30.11,30.03,29.96,10,9,3,8,1,,0.00,0,,183
2013-2-16,48,39,32,39,36,32,98,91,68,29.96,29.88,29.78,10,9,1,9,3,18,0.14,4,Rain-Snow,310
2013-2-17,40,34,28,32,19,6,95,58,27,30.30,30.13,29.95,10,10,10,14,5,26,0.00,0,,269
2013-2-18,54,38,23,30,21,8,95,60,18,30.44,30.36,30.30,10,10,10,14,2,17,0.00,0,,150
2013-2-19,59,45,31,54,42,29,96,85,61,30.29,30.08,29.93,10,10,2,15,3,26,0.00,2,Rain,210
2013-2-20,56,44,32,43,27,10,96,58,17,30.13,30.07,29.99,10,10,10,7,1,,0.00,0,,263
2013-2-21,58,46,33,35,24,15,92,49,21,30.23,30.16,30.10,10,10,7,9,2,16,0.00,0,,14
2013-2-22,47,44,40,43,35,25,99,76,53,30.30,30.20,30.08,10,8,2,14,7,17,0.04,5,Rain,46
2013-2-23,41,32,22,41,30,22,100,99,98,30.08,29.93,29.81,10,3,1,6,2,,0.28,8,Rain,6
2013-2-24,54,38,22,41,28,16,100,84,45,30.00,29.92,29.81,10,8,1,8,2,,0.01,4,,268
2013-2-25,43,38,34,36,29,26,99,67,53,30.18,30.09,30.00,10,10,5,12,5,18,0.00,1,,38
2013-2-26,48,40,31,48,36,29,100,90,68,30.07,29.78,29.55,10,7,1,17,9,28,0.68,5,Rain,100
2013-2-27,57,44,30,41,37,28,93,69,45,29.85,29.78,29.67,10,10,10,10,5,18,0.00,0,,235
2013-2-28,54,45,36,41,35,29,87,65,39,29.87,29.79,29.75,10,10,10,12,5,20,0.00,1,,248